OE3XAM-13 Weather Reports


time (UTC)temp
F
wind
direction
speed
knots
gust
knots
rain 1hr
in
rain 24hr
in
rain mn
in
humidity
%
barometer
mb
20260507054128 55 0 1.7 0.0 0.00 0.00 0.00 65 977.0
20260507051128 54 0 0.9 0.0 0.00 0.00 0.00 66 976.0
20260507044128 52 0 2.6 0.0 0.00 0.00 0.00 70 976.0
20260507041128 51 0 0.9 0.0 0.00 0.00 0.00 74 976.0
20260507034128 51 0 0.0 0.0 0.00 0.00 0.00 75 976.0
20260507031128 51 0 0.9 0.0 0.00 0.00 0.00 74 975.0
20260507024128 52 0 0.9 0.0 0.00 0.00 0.00 73 975.0
20260507021128 53 0 0.0 0.0 0.00 0.00 0.00 70 976.0
20260507014128 54 0 0.0 0.0 0.00 0.00 0.00 67 975.0
20260507011128 54 0 3.5 0.0 0.00 0.00 0.00 70 975.0
20260507004128 55 0 0.0 0.0 0.00 0.00 0.00 67 975.0
20260507001128 55 0 3.5 0.0 0.00 0.00 0.00 68 975.0
20260506234128 56 0 1.7 0.0 0.00 0.00 0.00 69 975.0
20260506231128 58 0 3.5 0.0 0.00 0.00 0.00 65 975.0
20260506224128 58 0 5.2 0.0 0.00 0.00 0.00 63 974.0
20260506221128 58 0 0.9 0.0 0.00 0.00 0.00 66 973.0
20260506214128 59 0 2.6 0.0 0.00 0.00 0.00 65 974.0
20260506211128 61 0 3.5 0.0 0.00 0.00 0.00 61 972.0
20260506204128 62 0 7.0 0.0 0.00 0.00 0.00 57 971.0
20260506201128 62 0 7.0 0.0 0.00 0.00 0.00 53 971.0
20260506194128 64 0 1.7 0.0 0.00 0.00 0.00 48 970.0
20260506191128 70 0 7.0 0.0 0.00 0.00 0.00 34 968.0
20260506184128 71 0 0.9 0.0 0.00 0.00 0.00 34 968.0
20260506181128 72 0 0.9 0.0 0.00 0.00 0.00 33 967.0
20260506174128 73 0 3.5 0.0 0.00 0.00 0.00 31 967.0
20260506171128 74 0 3.5 0.0 0.00 0.00 0.00 31 967.0
20260506164128 76 0 4.3 0.0 0.00 0.00 0.00 28 967.0
20260506161128 77 0 6.1 0.0 0.00 0.00 0.00 28 967.0
20260506154128 77 0 1.7 0.0 0.00 0.00 0.00 30 967.0
20260506151128 77 0 1.7 0.0 0.00 0.00 0.00 29 967.0
20260506144128 77 0 1.7 0.0 0.00 0.00 0.00 28 967.0
20260506141128 79 0 5.2 0.0 0.00 0.00 0.00 26 968.0
20260506134128 82 0 2.6 0.0 0.00 0.00 0.00 25 968.0
20260506131128 81 0 1.7 0.0 0.00 0.00 0.00 28 968.0
20260506124128 80 0 1.7 0.0 0.00 0.00 0.00 31 969.0
20260506121128 78 0 4.3 0.0 0.00 0.00 0.00 31 970.0
20260506114128 76 0 0.9 0.0 0.00 0.00 0.00 34 970.0
20260506111128 74 0 1.7 0.0 0.00 0.00 0.00 35 970.0
20260506104128 74 0 1.7 0.0 0.00 0.00 0.00 36 970.0
20260506101128 74 0 1.7 0.0 0.00 0.00 0.00 37 971.0
20260506094128 74 0 0.9 0.0 0.00 0.00 0.00 37 971.0
20260506091128 72 0 0.9 0.0 0.00 0.00 0.00 40 971.0
20260506084128 70 0 0.9 0.0 0.00 0.00 0.00 47 972.0
20260506081128 68 0 0.0 0.0 0.00 0.00 0.00 51 972.0
20260506071128 64 0 2.6 0.0 0.00 0.00 0.00 60 973.0
20260506061128 59 0 0.0 0.0 0.00 0.00 0.00 71 973.0